User: anonymous
Location: Valdosta
(30.8330°N, 83.2790°W)
Time: 10:45:21
(UTC-04:00)
Language:

Oscar 19 - Orbit

View from above orbital plane
View from above orbital plane
View from above satellite
View from above satellite

Ground track
Ground track

The orbit data is extracted from the following two-line orbital elements,

1 20442U 90005G   14205.09306135  .00000019  00000-0  22920-4 0   120
2 20442 098.4788 142.2799 0012494 044.6947 315.5242 14.32570868279965
Epoch (UTC): 24 July 2014 02:14:00
Eccentricity: 0.0012494
inclination: 98.4788°
perigee height: 774 km
apogee height: 792 km
right ascension of ascending node: 142.2799°
argument of perigee: 44.6947°
revolutions per day: 14.32570868
mean anomaly at epoch: 315.5242°
orbit number at epoch: 27996

The dashed part of the orbit path shows where the satellite is in the earth's shadow,  

DLR